Location: Bittelbronn
(48.4454°N, 8.5870°E)
Time: 16:26:37
(UTC+00:00)

Cosmos 1400 Rocket - Pass Details

Date: 23 May 2024
Orbit: 501 x 544 km, 81.2° (Epoch: 16 June)

Event Time Altitude Azimuth Distance (km) Brightness Sun altitude
Exits shadow 00:32:27 39° 247° (WSW) 836 3.4 -19.2°
Maximum altitude 00:33:22 46° 286° (WNW) 737 3.4 -19.1°
Drops below altitude 10° 00:37:15 10° 1° (N) 1,817 6.6 -18.9°
Sets 00:39:29 0° 7° (N) 2,709 7.9 -18.8°
